Kwethluk AP, Kwethluk, AK, AK

10:17 AM AKDT on October 20, 2017 (GMT -0800)
Kwethluk AP, Kwethluk, AK

Weather History for PFKW - February, 2014

Change the Weather History Date:

Thursday, February 27, 2014

  Actual Average (PABE) Record (PABE)
Temperature  
Mean Temperature 40 °F -  
Max Temperature 46 °F 18 °F 46 °F (2014)
Min Temperature 35 °F 3 °F -39 °F (1932)
Degree Days  
Heating Degree Days 24    
Moisture  
Dew Point 33 °F    
Average Humidity 73    
Maximum Humidity 86    
Minimum Humidity 63    
Precipitation  
Precipitation 0.00 in - - ()
Sea Level Pressure  
Sea Level Pressure 29.52 in    
Wind  
Wind Speed 10 mph (East)    
Max Wind Speed 15 mph    
Max Gust Speed 18 mph    
Visibility 10 miles    
Events      
Averages and records for this station are not official NWS values.
T = Trace of Precipitation, MM = Missing Value Source: NWS Daily Summary

Daily Weather History Graph

Daily Weather History Graph

Search for Another Location

Airport or City:

Trip Planner

Search our weather history database for the weather conditions in past years. The results will help you decide how hot, cold, wet, or windy it might be!

Date:

Astronomy

Feb. 27, 2014 Rise Set
Actual Time 8:50 AM AKST 7:07 PM AKST
Civil Twilight 8:07 AM AKST 7:50 PM AKST
Nautical Twilight 7:18 AM AKST 8:39 PM AKST
Astronomical Twilight 6:28 AM AKST 9:29 PM AKST
Moon 7:49 AM AKST (2/27) 5:35 PM AKST (2/27)
Length of Visible Light 11h 42m
Length of Day
10h 16m
Waning Crescent, 3% of the Moon is Illuminated
Feb 27
Waning Crescent
Feb 28
New
Mar 8
First Quarter
Mar 16
Full
Mar 23
Last Quarter

Hourly Weather History & Observations

Time (AKST) Temp. Windchill Dew Point Humidity Pressure Visibility Wind Dir Wind Speed Gust Speed Precip Events Conditions
12:56 AM 42.1 °F 37.7 °F 32.0 °F 67% 29.46 in 10.0 mi ENE 6.9 mph - N/A   Clear
1:56 AM 42.1 °F 35.2 °F 32.0 °F 67% 29.45 in 10.0 mi East 12.7 mph - N/A   Clear
3:56 AM 42.1 °F 34.5 °F 33.1 °F 70% 29.46 in 10.0 mi East 15.0 mph - N/A   Clear
4:56 AM 39.9 °F 32.1 °F 33.1 °F 77% 29.47 in 10.0 mi East 13.8 mph 18.4 mph N/A   Clear
5:56 AM 39.9 °F 33.4 °F 33.1 °F 77% 29.47 in 10.0 mi East 10.4 mph - N/A   Clear
6:56 AM 39.9 °F 33.9 °F 33.1 °F 77% 29.48 in 10.0 mi East 9.2 mph - N/A   Scattered Clouds
7:56 AM 39.9 °F 35.1 °F 33.1 °F 77% 29.49 in 10.0 mi ENE 6.9 mph - N/A   Overcast
8:56 AM 41.0 °F 35.8 °F 34.0 °F 76% 29.49 in 10.0 mi ENE 8.1 mph - N/A   Overcast
9:56 AM 42.1 °F 35.2 °F 34.0 °F 73% 29.49 in 10.0 mi ENE 12.7 mph - N/A   Overcast
10:56 AM 42.1 °F 37.1 °F 34.0 °F 73% 29.51 in 10.0 mi NE 8.1 mph - N/A   Overcast
11:56 AM 43.0 °F 38.2 °F 35.1 °F 74% 29.51 in 10.0 mi ENE 8.1 mph - N/A   Overcast
12:56 PM 46.0 °F 41.9 °F 36.0 °F 68% 29.51 in 10.0 mi ENE 8.1 mph - N/A   Overcast
1:56 PM 46.9 °F - 36.0 °F 66% 29.51 in 10.0 mi East 8.1 mph - N/A   Overcast
2:56 PM 46.0 °F 41.4 °F 36.0 °F 68% 29.51 in 10.0 mi East 9.2 mph - N/A   Overcast
3:56 PM 46.0 °F 41.4 °F 36.0 °F 68% 29.52 in 10.0 mi ESE 9.2 mph - N/A   Overcast
4:56 PM 46.0 °F 41.4 °F 34.0 °F 63% 29.53 in 10.0 mi SSE 9.2 mph - N/A   Overcast
5:56 PM 43.0 °F 37.2 °F 34.0 °F 71% 29.55 in 10.0 mi SE 10.4 mph - N/A   Overcast
6:56 PM 42.1 °F 36.6 °F 33.1 °F 70% 29.56 in 10.0 mi SE 9.2 mph - N/A   Overcast
7:56 PM 39.0 °F 33.4 °F 33.1 °F 79% 29.58 in 10.0 mi SE 8.1 mph - N/A   Mostly Cloudy
8:56 PM 36.0 °F 30.3 °F 32.0 °F 86% 29.60 in 10.0 mi SE 6.9 mph - N/A   Mostly Cloudy
9:56 PM 35.1 °F 28.6 °F 30.0 °F 82% 29.62 in 10.0 mi SE 8.1 mph - N/A   Clear
10:56 PM 37.9 °F 29.2 °F 30.9 °F 76% 29.65 in 10.0 mi SE 15.0 mph - N/A   Scattered Clouds
11:56 PM 36.0 °F 26.7 °F 30.0 °F 79% 29.65 in 10.0 mi SE 15.0 mph - N/A   Scattered Clouds